Ashland, MO

6:29 AM CDT on August 30, 2016 (GMT -0500)
Columbia Regional

Weather History for KCOU - September, 2011

Change the Weather History Date:

Thursday, September 1, 2011

  Actual Average Record
Temperature  
Mean Temperature 86 °F 73 °F  
Max Temperature 98 °F 84 °F 102 °F (1913)
Min Temperature 74 °F 63 °F 45 °F (1967)
Degree Days  
Heating Degree Days 0 0  
Month to date heating degree days 0 0  
Since 1 July heating degree days 0 2  
Cooling Degree Days 21 9  
Month to date cooling degree days 21 9  
Year to date cooling degree days 1401 1092  
Growing Degree Days 36 (Base 50)    
Moisture  
Dew Point 70 °F    
Average Humidity 63    
Maximum Humidity 87    
Minimum Humidity 38    
Precipitation  
Precipitation 0.00 in 0.14 in 4.50 in (2014)
Month to date precipitation 0.00 0.14  
Year to date precipitation 28.19 29.89  
Snow  
Snow 0.00 in 0.00 in 0.00 in (2013)
Month to date snowfall 0.0  
Since 1 July snowfall 0.0  
Since 1 September snowfall 0.0  
Snow Depth -    
Sea Level Pressure  
Sea Level Pressure 29.94 in    
Wind  
Wind Speed 10 mph (South)    
Max Wind Speed 16 mph    
Max Gust Speed 22 mph    
Visibility 10 miles    
Events      
T = Trace of Precipitation, MM = Missing Value Source: NWS Daily Summary

Daily Weather History Graph

Daily Weather History Graph

Search for Another Location

Airport or City:

Trip Planner

Search our weather history database for the weather conditions in past years. The results will help you decide how hot, cold, wet, or windy it might be!

Date:

Astronomy

Sep. 01, 2011 Rise Set
Actual Time 6:37 AM CDT 7:39 PM CDT
Civil Twilight 6:10 AM CDT 8:06 PM CDT
Nautical Twilight 5:37 AM CDT 8:39 PM CDT
Astronomical Twilight 5:04 AM CDT 9:12 PM CDT
Moon 10:54 AM CDT (9/1) 9:34 PM CDT (9/1)
Length of Visible Light 13h 56m
Length of Day
13h 01m
Waxing Crescent, 18% of the Moon is Illuminated
Sep 1
Waxing Crescent
Sep 4
First Quarter
Sep 12
Full
Sep 20
Last Quarter
Sep 27
New

Hourly Weather History & Observations

Time (CDT) Temp. Heat Index Dew Point Humidity Pressure Visibility Wind Dir Wind Speed Gust Speed Precip Events Conditions
12:54 AM 79.0 °F - 72.0 °F 79% 29.92 in 10.0 mi South 9.2 mph - N/A   Clear
1:54 AM 79.0 °F - 72.0 °F 79% 29.92 in 10.0 mi South 8.1 mph - N/A   Clear
2:54 AM 77.0 °F - 72.0 °F 84% 29.93 in 10.0 mi South 6.9 mph - N/A   Clear
3:54 AM 77.0 °F - 71.1 °F 82% 29.93 in 10.0 mi SSE 6.9 mph - N/A   Clear
4:54 AM 77.0 °F - 71.6 °F 83% 29.97 in 10.0 mi South 8.1 mph - N/A   Clear
5:54 AM 75.0 °F - 71.1 °F 87% 29.95 in 9.0 mi South 6.9 mph - N/A   Clear
6:54 AM 73.9 °F - 70.0 °F 87% 29.96 in 7.0 mi South 8.1 mph - N/A   Clear
7:54 AM 77.0 °F - 70.0 °F 79% 29.97 in 8.0 mi South 9.2 mph - N/A   Clear
8:54 AM 82.0 °F 86.3 °F 71.1 °F 69% 29.98 in 9.0 mi South 11.5 mph - N/A   Clear
9:54 AM 87.1 °F 92.8 °F 71.1 °F 59% 29.99 in 10.0 mi SSW 10.4 mph - N/A   Clear
10:54 AM 90.0 °F 95.4 °F 70.0 °F 52% 29.99 in 10.0 mi SSW 16.1 mph - N/A   Clear
11:54 AM 93.2 °F 98.8 °F 69.8 °F 46% 30.01 in 10.0 mi SW 13.8 mph - N/A   Clear
12:54 PM 95.0 °F 100.7 °F 69.1 °F 43% 29.96 in 10.0 mi SSW 8.1 mph - N/A   Clear
1:54 PM 96.1 °F 101.6 °F 69.1 °F 41% 29.94 in 10.0 mi SSW 9.2 mph - N/A   Clear
2:54 PM 97.0 °F 102.8 °F 69.1 °F 40% 29.93 in 10.0 mi SSW 9.2 mph - N/A   Clear
3:54 PM 98.1 °F 103.0 °F 68.0 °F 37% 29.91 in 10.0 mi SW 15.0 mph - N/A   Clear
4:54 PM 97.0 °F 102.8 °F 69.1 °F 40% 29.90 in 10.0 mi South 9.2 mph - N/A   Clear
5:54 PM 93.9 °F 100.8 °F 71.1 °F 47% 29.89 in 10.0 mi South 12.7 mph 20.7 mph N/A   Clear
6:54 PM 91.4 °F 98.4 °F 71.6 °F 52% 29.92 in 10.0 mi SSE 10.4 mph - N/A   Clear
7:54 PM 86.0 °F 91.5 °F 71.1 °F 61% 29.90 in 10.0 mi SSE 8.1 mph - N/A   Clear
8:54 PM 84.0 °F 89.0 °F 71.1 °F 65% 29.91 in 10.0 mi SSE 10.4 mph - N/A   Clear
9:54 PM 82.9 °F 87.5 °F 71.1 °F 67% 29.91 in 10.0 mi SSE 10.4 mph - N/A   Clear
10:54 PM 82.0 °F 85.9 °F 70.0 °F 67% 29.92 in 10.0 mi South 9.2 mph - N/A   Clear
11:54 PM 80.1 °F 82.9 °F 69.1 °F 69% 29.92 in 10.0 mi South 10.4 mph - N/A   Clear